TimeGMT,TemperatureF,Dew PointF,Humidity,Sea Level PressureIn,VisibilityMPH,Wind Direction,Wind SpeedMPH,Gust SpeedMPH,PrecipitationIn,Events,Conditions,WindDirDegrees,DateUTC
12:00 AM,41,38,85,29.62,12,West,11.2,,,Rain,Light Rain Showers,270,2013-01-01 00:00:00
12:00 AM,41.0,37.4,87,29.62,6.2,West,11.5,-,N/A,,Mostly Cloudy,270,2013-01-01 00:00:00
12:30 AM,41.0,37.4,87,29.62,6.2,West,12.7,-,N/A,,Mostly Cloudy,270,2013-01-01 00:30:00
1:00 AM,41.0,37.4,87,29.62,6.2,West,9.2,-,N/A,Rain,Light Rain Showers,260,2013-01-01 01:00:00
1:30 AM,39.2,37.4,93,29.62,6.2,West,8.1,-,N/A,,Mostly Cloudy,280,2013-01-01 01:30:00
2:00 AM,39.2,37.4,93,29.65,6.2,WSW,9.2,-,N/A,Rain,Light Rain Showers,250,2013-01-01 02:00:00
2:30 AM,39.2,35.6,87,29.65,6.2,WNW,6.9,-,N/A,,Mostly Cloudy,290,2013-01-01 02:30:00
3:00 AM,37.4,35.6,93,29.65,6.2,WSW,4.6,-,N/A,,Scattered Clouds,240,2013-01-01 03:00:00
3:30 AM,39.2,35.6,87,29.65,6.2,WNW,8.1,-,N/A,,Mostly Cloudy,290,2013-01-01 03:30:00
4:00 AM,39.2,35.6,87,29.68,6.2,WNW,8.1,-,N/A,,Mostly Cloudy,290,2013-01-01 04:00:00
4:30 AM,39.2,33.8,81,29.68,6.2,WNW,8.1,-,N/A,,Scattered Clouds,290,2013-01-01 04:30:00
5:00 AM,41.0,35.6,81,29.71,6.2,WNW,26.5,-,N/A,Rain,Light Rain Showers,290,2013-01-01 05:00:00
5:30 AM,39.2,35.6,87,29.71,6.2,West,12.7,-,N/A,,Scattered Clouds,280,2013-01-01 05:30:00
6:00 AM,40,36,78,29.74,12,West,11.2,,,Rain,Light Rain Showers,280,2013-01-01 06:00:00
6:00 AM,39.2,35.6,87,29.74,6.2,West,11.5,-,N/A,Rain,Light Rain Showers,280,2013-01-01 06:00:00
6:30 AM,41.0,35.6,81,29.74,6.2,West,10.4,-,N/A,,Scattered Clouds,270,2013-01-01 06:30:00
7:00 AM,41.0,35.6,81,29.74,6.2,WNW,12.7,-,N/A,,Scattered Clouds,290,2013-01-01 07:00:00
7:30 AM,41.0,35.6,81,29.77,6.2,WNW,10.4,-,N/A,,Partly Cloudy,290,2013-01-01 07:30:00
8:00 AM,41.0,35.6,81,29.80,6.2,West,10.4,-,N/A,,Partly Cloudy,280,2013-01-01 08:00:00
8:30 AM,41.0,35.6,81,29.80,6.2,West,12.7,-,N/A,,Scattered Clouds,280,2013-01-01 08:30:00
9:00 AM,39.2,37.4,93,29.83,6.2,WNW,8.1,-,N/A,,Partly Cloudy,290,2013-01-01 09:00:00
9:30 AM,41.0,37.4,87,29.83,6.2,West,8.1,-,N/A,,Partly Cloudy,270,2013-01-01 09:30:00
10:00 AM,42.8,35.6,76,29.86,6.2,West,16.1,-,N/A,,Scattered Clouds,280,2013-01-01 10:00:00
10:30 AM,42.8,37.4,81,29.86,6.2,West,12.7,-,N/A,,Mostly Cloudy,280,2013-01-01 10:30:00
11:00 AM,44.6,37.4,76,29.89,6.2,West,12.7,-,N/A,Rain,Light Rain Showers,270,2013-01-01 11:00:00
11:30 AM,44.6,37.4,76,29.89,6.2,West,13.8,-,N/A,,Mostly Cloudy,280,2013-01-01 11:30:00
12:00 PM,45,40,75,29.91,16,West,13.4,,,Rain,Light Rain Showers,270,2013-01-01 12:00:00
12:00 PM,44.6,39.2,81,29.89,6.2,West,13.8,-,N/A,,Scattered Clouds,270,2013-01-01 12:00:00
12:30 PM,46.4,39.2,76,29.92,6.2,West,16.1,-,N/A,Rain,Light Rain Showers,280,2013-01-01 12:30:00
1:00 PM,44.6,39.2,81,29.92,6.2,WNW,15.0,-,N/A,,Partly Cloudy,290,2013-01-01 13:00:00
1:30 PM,46.4,41.0,81,29.92,6.2,West,12.7,-,N/A,,Partly Cloudy,280,2013-01-01 13:30:00
2:00 PM,46.4,39.2,76,29.92,6.2,WNW,11.5,-,N/A,,Partly Cloudy,290,2013-01-01 14:00:00
2:30 PM,46.4,39.2,76,29.95,6.2,West,10.4,-,N/A,,Partly Cloudy,280,2013-01-01 14:30:00
3:00 PM,46.4,39.2,76,29.95,6.2,West,12.7,-,N/A,,Partly Cloudy,270,2013-01-01 15:00:00
3:30 PM,46.4,39.2,76,29.98,6.2,West,11.5,-,N/A,,Scattered Clouds,270,2013-01-01 15:30:00
4:00 PM,46.4,39.2,76,29.98,6.2,West,9.2,-,N/A,,Mostly Cloudy,270,2013-01-01 16:00:00
4:30 PM,44.6,39.2,81,29.98,6.2,West,9.2,-,N/A,,Mostly Cloudy,260,2013-01-01 16:30:00
5:00 PM,44.6,39.2,81,30.01,6.2,West,8.1,-,N/A,,Mostly Cloudy,260,2013-01-01 17:00:00
5:30 PM,44.6,41.0,87,30.01,6.2,West,6.9,-,N/A,,Mostly Cloudy,270,2013-01-01 17:30:00
6:00 PM,45,41,79,30.04,12,WSW,6.7,,,,Partly Cloudy,240,2013-01-01 18:00:00
6:00 PM,44.6,41.0,87,30.01,6.2,WSW,6.9,-,N/A,,Mostly Cloudy,240,2013-01-01 18:00:00
6:30 PM,44.6,41.0,87,30.04,6.2,WSW,6.9,-,N/A,,Mostly Cloudy,240,2013-01-01 18:30:00
7:00 PM,46.4,42.8,87,30.06,6.2,WSW,8.1,-,N/A,,Mostly Cloudy,250,2013-01-01 19:00:00
7:30 PM,44.6,42.8,93,30.06,6.2,WSW,8.1,-,N/A,,Mostly Cloudy,250,2013-01-01 19:30:00
8:00 PM,44.6,42.8,93,30.06,6.2,WSW,6.9,-,N/A,,Mostly Cloudy,250,2013-01-01 20:00:00
8:30 PM,46.4,42.8,87,30.06,6.2,WSW,6.9,-,N/A,,Mostly Cloudy,240,2013-01-01 20:30:00
9:00 PM,46.4,42.8,87,30.09,6.2,SW,4.6,-,N/A,,Mostly Cloudy,230,2013-01-01 21:00:00
9:30 PM,46.4,42.8,87,30.09,6.2,SSW,4.6,-,N/A,,Mostly Cloudy,210,2013-01-01 21:30:00
10:00 PM,46.4,42.8,87,30.09,6.2,SSW,5.8,-,N/A,,Light Drizzle,210,2013-01-01 22:00:00
10:30 PM,46.4,44.6,93,30.09,6.2,SW,6.9,-,N/A,,Light Drizzle,220,2013-01-01 22:30:00
11:00 PM,46.4,44.6,93,30.09,6.2,SW,10.4,-,N/A,,Light Drizzle,230,2013-01-01 23:00:00
11:30 PM,46.4,44.6,93,30.09,3.7,South,6.9,-,N/A,,Light Drizzle,190,2013-01-01 23:30:00